Location: Wiesbaden
(50.0830°N, 8.2500°E)
Time: 07:25:14
(UTC+02:00)

ISS - Pass Details

Date: 24 May 2019
Orbit: 408 x 418 km, 51.6° (Epoch: 27 May)

Event Time Altitude Azimuth Distance (km) Brightness Sun altitude
Rises 01:03:00 0° 286° (WNW) 2,360 0.3 -19.1°
Reaches altitude 10° 01:05:06 10° 285° (WNW) 1,496 -0.7 -19.1°
Enters shadow 01:08:17 72° 231° (SW) 444 -3.9 -19.2°
